Regional Weather Roundup
Issued by NWS Burlington, VT

Home | Current Version | Previous Version | Text Only | Print | Product List | Glossary On
Versions: 1 2 3 4 5 6 7 8 9 10 11 12 13 14 15 16 17 18 19 20 21 22 23 24 25 26 27 28 29 30 31 32 33 34 35 36 37 38 39 40 41 42 43 44 45 46 47 48 49 50
000
ASUS41 KBTV 241010
RWRBTV
VERMONT REGIONAL WEATHER ROUNDUP
NATIONAL WEATHER SERVICE BURLINGTON VT
600 AM EDT TUE MAY 24 2016

NOTE: "FAIR" INDICATES FEW OR NO CLOUDS BELOW 12,000 FEET WITH NO
SIGNIFICANT WEATHER AND/OR OBSTRUCTIONS TO VISIBILITY.

* THESE REPORTS ARE NOT UNDER NWS QUALITY CONTROL AND/OR DO NOT
  REPORT WEATHER SUCH AS PRECIPITATION AND FOG.

VTZ001>019-241100-
_____VERMONT_____


CITY           SKY/WX    TMP DP  RH WIND       PRES   REMARKS
BURLINGTON     FAIR      51  43  74 NE3       29.92R
MONTPELIER     MOCLDY    46  42  86 CALM      29.98R
MORRISVILLE    FAIR      41  38  89 CALM      29.97R
ST. JOHNSBURY*   N/A     47  42  83 MISG      29.94R
LYNDONVILLE*   MOCLDY    47  40  78 CALM      29.96S
MIDDLEBURY*    FAIR      51  45  80 CALM      29.92R
RUTLAND*       MOCLDY    54  49  83 SE5       29.92R
SPRINGFIELD    MOCLDY    53  51  93 CALM      29.92S
HIGHGATE*      FAIR      47  43  84 CALM      29.92R
NEWPORT*       FAIR      42  39  91 SW6       29.96R
BENNINGTON     LGT RAIN  56  54  93 CALM      29.91R

_____LAKE CHAMPLAIN_____


CITY           SKY/WX    TMP DP  RH WIND       PRES   REMARKS
COLCHESTER RF*   N/A     55  48  76 N6          N/A
DIAMOND ISL*     N/A     55  48  76 E2          N/A

$$

NYZ007-026>031-035-052-083-087-241100-
_____NORTHERN NEW YORK_____


CITY           SKY/WX    TMP DP  RH WIND       PRES   REMARKS
PLATTSBURGH    CLOUDY    48  41  76 CALM      29.91S
SARANAC LAKE   CLOUDY    38  34  85 CALM      29.96R
MASSENA        CLEAR     45  42  89 CALM      29.94S
OGDENSBURG*    CLEAR     46  46 100 CALM      29.93S
WATERTOWN      PTCLDY    44  41  89 CALM      29.94R
FT DRUM        CLEAR     50  45  83 SE5       29.93R
ALBANY         CLOUDY    60  53  77 CALM      29.90R
GLENS FALLS    CLOUDY    54  45  71 CALM      29.91R

$$
NHZ002-005-011-241100-
_____NEW HAMPSHIRE_____


CITY           SKY/WX    TMP DP  RH WIND       PRES   REMARKS
LEBANON        CLOUDY    54  47  77 N5        29.92S
KEENE          CLOUDY    55  52  88 CALM      29.91S
MT WASHINGTON  MOCLDY    45  36  70 E25         N/A
PLYMOUTH       FAIR      53  52  95 CALM      29.94R
WHITEFIELD     MOCLDY    47  44  90 CALM      29.95S

$$

_____REGIONAL QUEBEC LOCATIONS_____


CITY           SKY/WX    TMP DP  RH WIND       PRES   REMARKS
MONTREAL       MOCLDY    55  45  67 S3        29.92R
QUEBEC CITY    PTCLDY    54  41  62 E3        29.95R
SHERBROOKE     PTCLDY    46  41  81 E6        29.95R

_____REGIONAL ONTARIO LOCATIONS_____


CITY           SKY/WX    TMP DP  RH WIND       PRES   REMARKS
OTTAWA         PTCLDY    52  43  71 VRB2      29.92S

______KEY______
VSB  - VISIBILITY IN MILES
WCI  - WIND CHILL INDEX
HX   - HEAT INDEX
$$
NNNN



USA.gov is the U.S. government's official web portal to all federal, state and local government web resources and services.